Location: Broekland
(52.3610°N, 6.2005°E)
Time: 10:16:35
(UTC+00:00)

Cosmos 1538 Rocket - Pass Details

Date: 19 May 2025
Orbit: 749 x 788 km, 74.0° (Epoch: 23 June)

Event Time Altitude Azimuth Distance (km) Brightness Sun altitude
Exits shadow 22:50:42 30° 180° (S) 1,337 4.7 -17.1°
Maximum altitude 22:53:11 63° 110° (ESE) 841 4.0 -17.2°
Drops below altitude 10° 22:58:17 10° 30° (NNE) 2,280 7.2 -17.3°
Sets 23:00:40 0° 28° (NNE) 3,209 8.1 -17.3°
